OBJECT L, 44889

Orbit data source: Space-Track

You're viewing an Uncataloged Satellite

Recently launched and/or uncataloged satellites may have evolving metadata. Metadata may include but not limited to: Owner, Maufacturer, Bus, Motor, and Mission.

OBJECT L, 44889 is a satellite in SSO that was launched on Fri, 20 Dec 2019 UTC via a CHANG ZHENG 4B launch vehicle from the Taiyaun Space Center, China (TSC). Unknown objects in Earth's orbit typically refer to objects detected orbiting the Earth but have not yet been identified or cataloged. These objects could be anything from previously untracked satellites, spent rocket stages, debris from satellite collisions, or even natural meteoroids temporarily captured by Earth's gravity.

Loading next visibility...
OBJECT L details
Identifier
44889, 2019-093L
Orbit
SSO
Last TLE update8 hours ago
Origin
Flag of TBDTLCJ/GUOX (TBD)
ManufacturerWEINA/GUOX
MissionCommercial Imaging
Bus & MotorCUBESAT 6U, Unknown motor
Mass~10 kg wet, ~10 kg dry
Launch date (UTC)
2019-12-20 (5 years ago)
Launch vehicle
CHANG ZHENG 4B
Launch site
Taiyaun Space Center, China (TSC)
Object typeUnknown
Shape & HBRBox, Unknown HBR
Radar Cross Section0.080 m², Medium (>0.1 m² and < 1m²)

Expand to show TLE details & history

TLE from 8 hours ago
0 OBJECT L
1 44889U 19093L   24361.52258615  .00007107  00000-0  74905-3 0  9998
2 44889  97.8078  75.3275 0013884  40.4974 319.7274 14.89569646271613
Epoch: 2024-12-26T12:32Z
Definitive object data (Epoch: 2024-12-26T12:32:31.443Z)
Latitude-0.00001°
Longitude151.69572°
Altitude594.929 km
Speed7.566 km/s
True Right ascension05h 01m 18s
True Declination0° 00' 00"
Sunlit
Object was in full shadow at TLE epoch
Visualization TLE readout
Latitude35.41017°
Longitude146.47002°
Altitude594.408 km
Speed7.571 km/s
Apparent Right ascension06h 16m 09s
Apparent Declination0° 18' 33"
Sunlit
Object is in full shadow
Visualization observer readout
Local Sidereal Time20:08:36
Azimuth39.985° NE
Elevation-42.841°
Doppler factor1
Orbital elements
Apogee altitude605.987 km
Perigee altitude586.62 km
Semi-major axis6,974.44 km
Eccentricity0.0013884
Inclination97.8078°
RAAN75.3275°
Arg. of periapsis40.4974°
True anomaly319.62442°
Mean anomaly319.7274°
Eccentric anomaly319.67592°
Mean motion3.72631 °/min
BSTAR0.00074905
Orbital period96.61 mins
Loading maneuver chart data...
Loading historical data...
Loading historical data...
Loading historical data...
Loading historical data...
Loading historical data...
Loading historical data...
Loading historical data...

OBJECT L Visibility forecast

Observer location: undefined°, undefined

Span
Click to sort rows by Start time (UTC) header in descending order
Start Az.
Max El. time (UTC)
Max El. Az.
Max El.
End time (UTC)
End Az.
7 mins2024-12-27 04:47:43.299Z143.816° SSE2024-12-27 04:50:43.299Z83.357° E36.401°2024-12-27 04:54:43.299Z0.081° NNE
6 mins2024-12-27 18:08:43.299Z7.384° NNE2024-12-27 18:10:43.299Z336.033° NNW43.678°2024-12-27 18:14:43.299Z198.205° SSW
|